Hourly Data Report for October 04, 2017

All times are specified in Local Standard Time (LST). Add 1 hour to adjust for Daylight Saving Time where and when it is observed.

NORTH COWICHAN
BRITISH COLUMBIA

48°49'27.010" N
123°43'08.009" W
44.80 m
1015630
71927
VOO

Download Data

Hourly Data (October 2017)
Hourly Data Report for October 4, 2017
Temp Definition
°C
Dew Point Temp Definition
°C
Rel Hum Definition
%
Wind Dir Definition
10's deg

Wind Spd Definition
km/h
Visibility Definition
km
Stn Press Definition
kPa
Hmdx Definition


Wind Chill Definition


Weather Definition


TIME
00:00 4.1 2.3 88 0 1   101.78     LegendNANA
01:00 3.3 1.6 89   0   101.79     LegendNANA
02:00 2.7 1.3 90 0 1   101.78     LegendNANA
03:00 2.1 0.8 91   0   101.76     LegendNANA
04:00 1.6 0.4 92   0   101.73     LegendNANA
05:00 1.6 0.4 92   0   101.68     LegendNANA
06:00 0.8 -0.3 92   0   101.68     LegendNANA
07:00 1.4 0.2 92   0   101.70     LegendNANA
08:00 6.9 2.8 75   0   101.69     LegendNANA
09:00 11.8 3.0 55 18 2   101.68     LegendNANA
10:00 14.9 0.5 37 2 3   101.68     LegendNANA
11:00 17.7 1.1 33 11 2   101.62     LegendNANA
12:00 18.3 1.9 33 13 5   101.59     LegendNANA
13:00 19.8 2.6 32 3 3   101.56     LegendNANA
14:00 19.7 2.1 31 35 5   101.53     LegendNANA
15:00 19.8 3.9 35 35 9   101.51     LegendNANA
16:00 18.5 3.9 38 35 8   101.50     LegendNANA
17:00 17.2 2.5 37 35 5   101.49     LegendNANA
18:00 13.2 4.8 56 35 2   101.52     LegendNANA
19:00 10.7 4.8 67 36 2   101.52     LegendNANA
20:00 9.0 4.6 74   0   101.54     LegendNANA
21:00 6.8 3.4 79   0   101.56     LegendNANA
22:00 5.6 3.0 84   0   101.59     LegendNANA
23:00 5.3 3.3 87   0   101.60     LegendNANA

Notes on Data Quality.

Legend

  • E = Estimated
  • M = Missing
  • NA = Not Available
  • ‡ = Partner data that is not subject to review by the National Climate Archives
Date modified: